FW8662 Weather Reports


time (UTC)temp
C
wind
direction
speed
KPH
gust
KPH
rain 1hr
cm
rain 24hr
cm
rain mn
cm
humidity
%
barometer
mb
20260508100016 11 293 16.1 30.6 0.00 1.07 1.02 85 1005.6
20260508095016 11 315 14.5 29.0 0.00 1.07 1.02 85 1005.2
20260508094015 11 248 11.3 30.6 0.00 1.07 1.02 85 1004.8
20260508093038 12 248 11.3 25.7 0.00 1.07 1.02 84 1004.8
20260508092017 12 135 6.4 17.7 0.00 1.07 1.02 84 1004.9
20260508091016 12 315 11.3 27.4 0.00 1.07 1.02 84 1004.9
20260508090516 12 270 11.3 29.0 0.00 1.07 1.02 84 1004.8
20260508085516 12 338 8.0 27.4 0.00 1.07 1.02 84 1004.6
20260508084516 12 135 6.4 16.1 0.00 1.07 1.02 84 1004.4
20260508083517 12 270 4.8 16.1 0.00 1.07 1.02 84 1004.4
20260508082517 12 113 4.8 16.1 0.00 1.07 1.02 84 1004.2
20260508081517 12 293 4.8 14.5 0.03 1.07 1.02 84 1004.3
20260508080517 12 113 6.4 19.3 0.03 1.07 1.02 84 1004.0
20260508075516 12 338 8.0 19.3 0.10 1.07 1.02 84 1003.8
20260508074537 12 315 8.0 17.7 0.15 1.07 1.02 84 1003.6
20260508073516 12 315 11.3 25.7 0.15 1.07 1.02 84 1003.5
20260508072516 12 293 11.3 25.7 0.18 1.07 1.02 85 1003.6
20260508071515 12 248 14.5 30.6 0.15 1.04 0.99 87 1003.2
20260508070515 13 248 14.5 33.8 0.18 1.04 0.99 88 1003.5
20260508065516 16 180 4.8 19.3 0.13 0.97 0.91 83 1002.8
20260508064515 16 158 11.3 32.2 0.08 0.91 0.86 83 1002.8
20260508063517 16 90 6.4 19.3 0.08 0.91 0.86 83 1002.7
20260508062515 16 113 6.4 19.3 0.05 0.89 0.84 83 1002.9
20260508061517 16 113 12.9 37.0 0.05 0.89 0.84 83 1002.1
20260508060537 16 113 8.0 30.6 0.05 0.86 0.81 83 1003.5
20260508055516 16 113 9.7 24.1 0.05 0.84 0.79 83 1003.0
20260508054517 16 90 11.3 29.0 0.51 0.84 0.79 83 1003.7
20260508053557 16 135 8.0 20.9 0.53 0.84 0.79 83 1003.1
20260508052535 16 68 6.4 22.5 0.53 0.84 0.79 84 1003.4
20260508051519 16 90 12.9 29.0 0.53 0.84 0.79 84 1003.5
20260508050517 16 90 11.3 25.7 0.51 0.81 0.76 85 1003.2
20260508045517 16 90 11.3 27.4 0.48 0.79 0.74 88 1003.3
20260508044517 17 68 6.4 17.7 0.03 0.33 0.28 88 1003.6
20260508043517 17 113 6.4 20.9 0.03 0.30 0.25 87 1003.4
20260508042518 17 113 6.4 14.5 0.03 0.30 0.25 87 1003.2
20260508041519 17 90 6.4 22.5 0.05 0.30 0.25 87 1003.1
20260508040559 17 90 8.0 16.1 0.10 0.30 0.25 87 1002.9
20260508035539 17 113 9.7 17.7 0.30 0.30 0.25 87 1003.0
20260508034516 17 45 6.4 16.1 0.30 0.30 0.25 87 1003.3
20260508033539 17 90 8.0 20.9 0.28 0.28 0.23 87 1003.7
20260508032517 17 315 16.1 30.6 0.28 0.28 0.23 87 1003.8
20260508031517 17 315 19.3 35.4 0.25 0.25 0.20 87 1003.6
20260508030517 17 293 20.9 35.4 0.20 0.20 0.15 86 1004.1
20260508025516 19 315 25.7 49.9 0.00 0.00 0.00 79 1004.4
20260508024516 20 293 19.3 33.8 0.00 0.00 0.00 71 1004.1
20260508023516 22 113 14.5 41.8 0.00 0.00 0.00 64 1004.3
20260508022516 23 113 11.3 27.4 0.00 0.00 0.00 65 1003.6
20260508021517 23 113 11.3 27.4 0.00 0.00 0.00 64 1003.4
20260508020516 23 113 16.1 43.5 0.00 0.00 0.00 64 1003.0
20260508015516 23 90 19.3 46.7 0.00 0.00 0.00 64 1002.4
20260508014516 23 90 19.3 41.8 0.00 0.00 0.00 64 1002.5
20260508013516 23 90 17.7 38.6 0.00 0.00 0.00 64 1002.5
20260508012516 23 90 17.7 53.1 0.00 0.00 0.00 63 1002.8
20260508011516 23 90 17.7 37.0 0.00 0.00 0.00 63 1002.8
20260508010516 23 90 9.7 32.2 0.00 0.00 0.00 63 1002.8
20260508005517 23 90 14.5 41.8 0.00 0.00 0.00 62 1002.8
20260508004618 23 90 16.1 37.0 0.00 0.00 0.00 61 1003.0
20260508003536 23 113 11.3 32.2 0.00 0.00 0.00 62 1003.0
20260508002516 23 90 17.7 33.8 0.00 0.00 0.00 61 1002.8
20260508001518 23 90 11.3 32.2 0.00 0.00 0.00 61 1002.9
20260508000516 23 113 11.3 29.0 0.00 0.00 0.00 61 1003.0
20260507235539 23 90 9.7 25.7 0.00 0.00 0.00 61 1002.9
20260507234516 23 90 9.7 29.0 0.00 0.00 0.00 60 1002.8
20260507233516 24 113 14.5 33.8 0.00 0.00 0.00 60 1002.7
20260507232517 24 90 14.5 27.4 0.00 0.00 0.00 60 1002.7
20260507231516 24 113 14.5 35.4 0.00 0.00 0.00 60 1002.6
20260507230537 24 113 9.7 33.8 0.00 0.00 0.00 60 1002.6
20260507225516 24 90 9.7 27.4 0.00 0.00 0.00 60 1002.7
20260507224516 24 90 11.3 30.6 0.00 0.00 0.00 59 1002.8
20260507223516 24 90 14.5 30.6 0.00 0.00 0.00 59 1003.0
20260507222516 25 90 11.3 27.4 0.00 0.00 0.00 58 1002.9
20260507221518 25 113 11.3 32.2 0.00 0.00 0.00 58 1002.9
20260507220516 25 90 9.7 25.7 0.00 0.00 0.00 58 1003.1
20260507215516 25 90 8.0 24.1 0.00 0.00 0.00 58 1003.3
20260507214516 25 90 11.3 25.7 0.00 0.00 0.00 57 1003.2
20260507213516 25 90 14.5 32.2 0.00 0.00 0.00 57 1003.1
20260507212516 25 90 9.7 25.7 0.00 0.00 0.00 57 1003.4
20260507211536 25 113 12.9 33.8 0.00 0.00 0.00 57 1003.5
20260507210516 25 135 9.7 35.4 0.00 0.00 0.00 56 1003.5
20260507205536 25 113 12.9 37.0 0.00 0.00 0.00 57 1003.5
20260507204516 25 90 9.7 29.0 0.00 0.00 0.00 57 1003.5
20260507203536 25 113 9.7 24.1 0.00 0.00 0.00 57 1003.3
20260507202519 26 90 8.0 29.0 0.00 0.00 0.00 57 1003.2
20260507201537 26 90 6.4 22.5 0.00 0.00 0.00 57 1003.5
20260507200516 26 90 9.7 25.7 0.00 0.00 0.00 56 1003.6
20260507195516 26 113 11.3 35.4 0.00 0.00 0.00 56 1003.4
20260507194516 26 113 8.0 29.0 0.00 0.00 0.00 57 1003.3
20260507193517 26 113 9.7 35.4 0.00 0.00 0.00 57 1003.3
20260507192516 26 90 8.0 22.5 0.00 0.00 0.00 57 1003.5
20260507191516 26 113 11.3 29.0 0.00 0.00 0.00 56 1003.5
20260507190515 26 90 8.0 40.2 0.00 0.00 0.00 55 1003.5
20260507185538 26 113 11.3 30.6 0.00 0.00 0.00 55 1003.5
20260507184538 26 135 8.0 22.5 0.00 0.00 0.00 56 1003.6
20260507183536 26 90 12.9 32.2 0.00 0.00 0.00 56 1003.4
20260507182518 26 90 11.3 38.6 0.00 0.00 0.00 55 1003.6
20260507181538 26 113 12.9 38.6 0.00 0.00 0.00 56 1003.8
20260507180516 26 90 12.9 38.6 0.00 0.00 0.00 55 1003.9
20260507175516 26 113 8.0 30.6 0.00 0.00 0.00 55 1004.0
20260507174516 26 90 11.3 38.6 0.00 0.00 0.00 54 1004.2
20260507173537 27 90 12.9 37.0 0.00 0.00 0.00 52 1004.4
20260507172536 27 113 12.9 38.6 0.00 0.00 0.00 52 1004.5
20260507171516 27 90 14.5 35.4 0.00 0.00 0.00 52 1004.6
20260507170515 27 113 14.5 40.2 0.00 0.00 0.00 52 1004.6
20260507165516 27 113 17.7 43.5 0.00 0.00 0.00 51 1004.4
20260507164517 26 113 14.5 35.4 0.00 0.00 0.00 50 1004.6
20260507163519 27 158 6.4 17.7 0.00 0.00 0.00 49 1004.7
20260507162517 27 90 14.5 49.9 0.00 0.00 0.00 50 1005.1
20260507161517 27 90 17.7 51.5 0.00 0.00 0.00 50 1005.3
20260507160516 27 90 14.5 41.8 0.00 0.00 0.00 51 1005.3
20260507155515 26 90 16.1 51.5 0.00 0.00 0.00 53 1005.3
20260507154538 26 90 11.3 38.6 0.00 0.00 0.00 54 1005.7
20260507153557 26 90 11.3 38.6 0.00 0.00 0.00 56 1005.8
20260507152516 26 68 20.9 46.7 0.00 0.00 0.00 58 1006.0
20260507151517 25 68 11.3 38.6 0.00 0.00 0.00 62 1006.3
20260507150538 25 90 12.9 40.2 0.00 0.00 0.00 63 1006.5
20260507145516 25 68 8.0 25.7 0.00 0.00 0.00 65 1006.7
20260507144557 25 90 14.5 48.3 0.00 0.00 0.00 65 1007.0
20260507143516 24 90 14.5 43.5 0.00 0.00 0.00 67 1007.3
20260507142517 24 90 12.9 40.2 0.00 0.00 0.00 68 1007.7
20260507141515 23 90 9.7 30.6 0.00 0.00 0.00 71 1007.8
20260507140517 23 90 14.5 35.4 0.00 0.00 0.00 73 1007.9
20260507135537 22 90 14.5 35.4 0.00 0.00 0.00 75 1008.2
20260507134516 22 68 12.9 40.2 0.00 0.00 0.00 77 1008.2
20260507133516 21 90 14.5 37.0 0.00 0.00 0.00 79 1008.4
20260507132516 21 68 12.9 32.2 0.00 0.00 0.00 79 1008.7
20260507131517 21 68 17.7 32.2 0.00 0.00 0.00 80 1009.1
20260507130537 21 68 11.3 25.7 0.00 0.00 0.00 80 1009.1
20260507125516 21 90 16.1 35.4 0.00 0.00 0.00 81 1009.3
20260507124516 21 68 16.1 32.2 0.00 0.00 0.00 80 1009.4
20260507123536 21 68 12.9 32.2 0.00 0.00 0.00 80 1009.5
20260507122517 21 68 20.9 32.2 0.00 0.00 0.00 81 1009.6
20260507121516 21 90 12.9 27.4 0.00 0.00 0.00 81 1009.8
20260507120516 21 68 14.5 30.6 0.00 0.00 0.00 81 1009.8
20260507115515 21 90 11.3 27.4 0.00 0.00 0.00 81 1009.5
20260507114516 21 68 17.7 35.4 0.00 0.00 0.00 82 1009.5
20260507113516 21 68 12.9 32.2 0.00 0.00 0.00 82 1009.5
20260507112517 21 68 17.7 33.8 0.00 0.00 0.00 82 1009.2
20260507111536 20 68 14.5 38.6 0.00 0.00 0.00 83 1009.0
20260507110518 20 90 17.7 35.4 0.00 0.00 0.00 83 1008.9
20260507105537 20 68 16.1 35.4 0.00 0.00 0.00 84 1008.8
20260507104515 20 68 19.3 32.2 0.00 0.00 0.00 84 1008.7
20260507103516 20 90 14.5 30.6 0.00 0.00 0.00 84 1008.9
20260507102517 20 68 17.7 30.6 0.00 0.00 0.00 84 1009.3
20260507101516 20 68 19.3 33.8 0.00 0.00 0.00 84 1009.2